EST,Max TemperatureF,Mean TemperatureF,Min TemperatureF,Max Dew PointF,MeanDew PointF,Min DewpointF,Max Humidity, Mean Humidity, Min Humidity, Max Sea Level PressureIn, Mean Sea Level PressureIn, Min Sea Level PressureIn, Max VisibilityMiles, Mean VisibilityMiles, Min VisibilityMiles, Max Wind SpeedMPH, Mean Wind SpeedMPH, Max Gust SpeedMPH,PrecipitationIn, CloudCover, Events, WindDirDegrees
2012-2-1,62,56,49,44,37,27,57,45,32,30.08,30.04,30.01,10,10,10,21,9,24,0.00,4,,239
2012-2-2,50,44,38,40,33,25,92,71,49,30.37,30.13,30.01,10,9,7,26,7,33,0.00,5,,341
2012-2-3,48,39,30,27,26,23,72,59,45,30.54,30.45,30.39,10,10,10,18,6,23,0.00,0,,316
2012-2-4,42,36,30,34,30,24,96,78,60,30.38,30.21,30.12,10,3,0,10,4,13,0.05,7,Fog-Rain-Snow,1
2012-2-5,42,37,32,32,30,26,100,80,59,30.27,30.14,30.07,10,4,0,12,3,15,T,7,Fog-Snow,308
2012-2-6,50,38,25,29,25,20,92,62,32,30.27,30.18,30.09,10,8,5,10,5,15,0.00,0,,196
2012-2-7,51,41,31,29,25,23,64,51,38,30.28,30.18,30.10,10,10,9,18,8,23,0.00,0,,299
2012-2-8,37,33,29,31,29,23,92,81,69,30.29,30.19,30.11,10,2,0,6,2,8,0.05,7,Fog-Snow,19
2012-2-9,43,33,22,27,19,15,85,61,36,30.30,30.23,30.15,10,10,9,16,6,21,0.00,1,,281
2012-2-10,40,33,25,32,26,18,75,60,44,30.22,30.04,29.90,10,6,1,13,4,17,0.00,5,Snow,201
2012-2-11,34,32,30,32,25,6,100,79,58,30.00,29.80,29.65,10,3,0,30,5,37,0.07,8,Fog-Snow,311
2012-2-12,28,24,19,11,9,5,62,52,42,30.16,30.09,30.03,10,10,10,29,21,37,0.00,6,,288
2012-2-13,45,34,23,18,15,11,60,46,31,30.22,30.15,30.10,10,10,10,20,10,25,0.00,1,,262
2012-2-14,47,40,33,32,24,14,75,54,33,30.11,30.04,29.97,10,10,10,10,4,14,0.00,7,,18
2012-2-15,47,42,37,32,29,27,76,63,49,30.31,30.23,30.07,10,10,7,21,7,24,0.00,5,,318
2012-2-16,44,39,33,40,36,28,89,80,70,30.30,30.13,30.00,10,6,2,20,4,24,0.22,8,Rain,165
2012-2-17,50,45,39,40,32,22,100,67,33,30.14,30.07,29.98,10,7,1,18,8,23,T,4,,297
2012-2-18,58,43,27,28,24,18,78,54,30,30.14,30.06,29.90,10,10,8,20,6,26,0.00,2,,269
2012-2-19,43,36,29,23,21,20,69,57,45,30.15,30.07,29.97,10,10,10,12,4,15,0.00,0,,6
2012-2-20,47,37,27,21,18,16,63,47,31,30.38,30.25,30.05,10,10,10,15,8,20,0.00,0,,9
2012-2-21,46,37,28,30,23,17,59,52,45,30.36,30.12,29.85,10,10,10,23,9,31,0.00,3,,167
2012-2-22,59,49,39,38,31,26,76,52,28,29.86,29.69,29.49,10,10,10,21,8,32,0.00,4,,203
2012-2-23,61,53,45,37,32,27,71,49,27,29.68,29.59,29.47,10,10,9,21,9,28,0.00,4,Rain,243
2012-2-24,48,45,41,43,38,23,93,87,80,29.69,29.53,29.41,10,6,2,16,7,21,0.22,7,Rain,8
2012-2-25,41,37,33,29,20,15,82,61,40,30.28,29.94,29.69,10,10,6,32,20,43,T,7,Snow,281
2012-2-26,45,38,31,20,18,16,59,45,31,30.50,30.43,30.32,10,10,10,22,8,28,0.00,2,,270
2012-2-27,63,47,30,29,23,18,63,44,25,30.40,30.28,30.14,10,10,10,16,7,21,0.00,1,,216
2012-2-28,52,41,29,23,21,19,69,50,30,30.52,30.42,30.32,10,10,10,22,7,29,0.00,0,,338
2012-2-29,43,41,38,41,37,21,92,68,43,30.30,29.92,29.66,10,4,0,16,5,21,0.76,7,Fog-Rain,50